• în România
  • Lista ţărilor
  • Pe 7 zile
  • Temperatura apei
  • Hartă satelitară
  • Meteo pe hartă
  • Widget-uri
  • user-avatar
    Intrare

    Meteo pe oră la Kitzbuhel

    Astăzi, 24 Iulie, Luni

    Timp Temperatura Precipitaţii Vânt Presiune Umiditate
    00:00 +16°C° 0,8 mm 1 m/s 677 mmHg 98%
    01:00 +15°C° 0 mm 1 m/s 676 mmHg 98%
    02:00 +15°C° 1,4 mm 1 m/s 676 mmHg 98%
    03:00 +15°C° 1,4 mm 1 m/s 675 mmHg 98%
    04:00 +15°C° 1,4 mm 1 m/s 675 mmHg 98%
    05:00 +15°C° 1,7 mm 1 m/s 675 mmHg 98%
    06:00 +15°C° 1,7 mm 1 m/s 674 mmHg 98%
    07:00 +15°C° 1,7 mm 1 m/s 674 mmHg 98%
    08:00 +15°C° 1,5 mm 1 m/s 673 mmHg 96%
    09:00 +15°C° 1,5 mm 1 m/s 673 mmHg 95%
    10:00 +15°C° 1,5 mm 1 m/s 673 mmHg 94%
    11:00 +15°C° 1,5 mm 2 m/s 673 mmHg 94%
    12:00 +15°C° 1,5 mm 2 m/s 673 mmHg 94%
    13:00 +14°C° 1,5 mm 3 m/s 672 mmHg 94%
    14:00 +14°C° 1,7 mm 2 m/s 672 mmHg 94%
    15:00 +14°C° 1,7 mm 2 m/s 673 mmHg 95%
    16:00 +14°C° 1,7 mm 2 m/s 673 mmHg 96%
    17:00 +14°C° 1,1 mm 2 m/s 673 mmHg 96%
    18:00 +13°C° 1,1 mm 2 m/s 673 mmHg 96%
    19:00 +13°C° 1,1 mm 2 m/s 672 mmHg 96%
    20:00 +12°C° 0 mm 2 m/s 672 mmHg 96%
    21:00 +12°C° 0 mm 2 m/s 673 mmHg 95%
    22:00 +10°C° 0 mm 2 m/s 673 mmHg 95%
    23:00 +10°C° 0 mm 2 m/s 673 mmHg 95%

    Mâine, 25 Iulie, Marţi

    Timp Temperatura Precipitaţii Vânt Presiune Umiditate
    00:00 +9°C° 0 mm 2 m/s 672 mmHg 95%
    01:00 +9°C° 0 mm 2 m/s 672 mmHg 95%
    02:00 +8°C° 0 mm 2 m/s 672 mmHg 95%
    03:00 +8°C° 0 mm 2 m/s 672 mmHg 96%
    04:00 +8°C° 0 mm 2 m/s 672 mmHg 96%
    05:00 +9°C° 0,1 mm 2 m/s 672 mmHg 94%
    06:00 +9°C° 0,1 mm 2 m/s 672 mmHg 92%
    07:00 +10°C° 0,1 mm 2 m/s 672 mmHg 90%
    08:00 +13°C° 0,1 mm 2 m/s 672 mmHg 83%
    09:00 +14°C° 0,1 mm 2 m/s 673 mmHg 75%
    10:00 +15°C° 0,1 mm 2 m/s 673 mmHg 68%
    11:00 +14°C° 0,4 mm 3 m/s 672 mmHg 69%
    12:00 +14°C° 0,4 mm 3 m/s 672 mmHg 70%
    13:00 +16°C° 0,4 mm 3 m/s 672 mmHg 71%
    14:00 +16°C° 0,6 mm 3 m/s 672 mmHg 72%
    15:00 +16°C° 0,6 mm 3 m/s 672 mmHg 74%
    16:00 +14°C° 0,6 mm 3 m/s 672 mmHg 75%
    17:00 +15°C° 0,5 mm 2 m/s 672 mmHg 80%
    18:00 +14°C° 0,5 mm 2 m/s 672 mmHg 86%
    19:00 +13°C° 0,5 mm 1 m/s 672 mmHg 91%
    20:00 +12°C° 0,2 mm 1 m/s 672 mmHg 92%
    21:00 +10°C° 0,2 mm 2 m/s 672 mmHg 94%
    22:00 +9°C° 0,2 mm 2 m/s 672 mmHg 95%
    23:00 +9°C° 0 mm 2 m/s 671 mmHg 94%

    Poimâine, 26 Iulie, Miercuri

    Timp Temperatura Precipitaţii Vânt Presiune Umiditate
    00:00 +9°C° 0 mm 1 m/s 671 mmHg 93%
    01:00 +9°C° 0 mm 1 m/s 671 mmHg 93%
    02:00 +8°C° 0 mm 1 m/s 671 mmHg 92%
    03:00 +8°C° 0 mm 1 m/s 670 mmHg 91%
    04:00 +8°C° 0 mm 1 m/s 670 mmHg 91%
    05:00 +8°C° 0,4 mm 2 m/s 670 mmHg 90%
    06:00 +9°C° 0,4 mm 2 m/s 670 mmHg 90%
    07:00 +10°C° 0,4 mm 2 m/s 670 mmHg 89%
    08:00 +10°C° 0,5 mm 2 m/s 671 mmHg 88%
    09:00 +12°C° 0,5 mm 2 m/s 671 mmHg 86%
    10:00 +13°C° 0,5 mm 2 m/s 671 mmHg 85%
    11:00 +13°C° 1 mm 2 m/s 671 mmHg 85%
    12:00 +13°C° 1 mm 2 m/s 671 mmHg 86%
    13:00 +13°C° 1 mm 2 m/s 672 mmHg 87%
    14:00 +13°C° 1,1 mm 2 m/s 672 mmHg 89%
    15:00 +11°C° 1,1 mm 3 m/s 672 mmHg 91%
    16:00 +11°C° 1,1 mm 3 m/s 672 mmHg 93%
    17:00 +11°C° 0,8 mm 3 m/s 672 mmHg 93%
    18:00 +12°C° 0,8 mm 2 m/s 672 mmHg 94%
    19:00 +10°C° 0,8 mm 2 m/s 673 mmHg 94%
    20:00 +10°C° 1,2 mm 2 m/s 673 mmHg 95%
    21:00 +10°C° 1,2 mm 2 m/s 673 mmHg 95%
    22:00 +9°C° 1,2 mm 2 m/s 673 mmHg 96%
    23:00 +9°C° 1,4 mm 2 m/s 673 mmHg 96%

    27 Iulie, Joi

    Timp Temperatura Precipitaţii Vânt Presiune Umiditate
    00:00 +9°C° 1,4 mm 2 m/s 673 mmHg 96%
    01:00 +9°C° 1,4 mm 2 m/s 673 mmHg 95%
    02:00 +9°C° 1,4 mm 2 m/s 674 mmHg 95%
    03:00 +9°C° 1,4 mm 2 m/s 674 mmHg 95%
    04:00 +9°C° 1,4 mm 2 m/s 674 mmHg 95%
    05:00 +10°C° 0,5 mm 2 m/s 674 mmHg 94%
    06:00 +12°C° 0,5 mm 2 m/s 674 mmHg 93%
    07:00 +12°C° 0,5 mm 2 m/s 674 mmHg 92%
    08:00 +14°C° 0 mm 2 m/s 675 mmHg 79%
    09:00 +16°C° 0 mm 2 m/s 675 mmHg 66%
    10:00 +18°C° 0 mm 2 m/s 676 mmHg 54%
    11:00 +18°C° 0,1 mm 2 m/s 675 mmHg 57%
    12:00 +18°C° 0,1 mm 2 m/s 675 mmHg 61%
    13:00 +18°C° 0,1 mm 2 m/s 675 mmHg 64%
    14:00 +17°C° 0,5 mm 2 m/s 675 mmHg 72%
    15:00 +15°C° 0,5 mm 1 m/s 675 mmHg 79%
    16:00 +14°C° 0,5 mm 1 m/s 674 mmHg 87%
    17:00 +14°C° 0,5 mm 1 m/s 675 mmHg 88%
    18:00 +14°C° 0,5 mm 1 m/s 675 mmHg 88%
    19:00 +14°C° 0,5 mm 2 m/s 675 mmHg 89%
    20:00 +13°C° 0,2 mm 2 m/s 675 mmHg 90%
    21:00 +12°C° 0,2 mm 2 m/s 675 mmHg 91%
    22:00 +12°C° 0,2 mm 2 m/s 675 mmHg 92%
    23:00 +10°C° 0,1 mm 2 m/s 675 mmHg 92%

    28 Iulie, Vineri

    Timp Temperatura Precipitaţii Vânt Presiune Umiditate
    00:00 +10°C° 0,1 mm 2 m/s 675 mmHg 92%
    01:00 +10°C° 0,1 mm 2 m/s 675 mmHg 92%
    02:00 +10°C° 0,1 mm 2 m/s 675 mmHg 92%
    03:00 +10°C° 0,1 mm 2 m/s 675 mmHg 92%
    04:00 +11°C° 0,1 mm 1 m/s 675 mmHg 92%
    05:00 +12°C° 0,1 mm 1 m/s 676 mmHg 89%
    06:00 +14°C° 0,1 mm 1 m/s 676 mmHg 86%
    07:00 +15°C° 0,1 mm 1 m/s 677 mmHg 84%
    08:00 +18°C° 0,1 mm 1 m/s 677 mmHg 76%
    09:00 +20°C° 0,1 mm 1 m/s 678 mmHg 69%
    10:00 +21°C° 0,1 mm 2 m/s 678 mmHg 62%
    11:00 +21°C° 0,6 mm 2 m/s 678 mmHg 65%
    12:00 +21°C° 0,6 mm 2 m/s 678 mmHg 68%
    13:00 +21°C° 0,6 mm 2 m/s 678 mmHg 71%
    14:00 +20°C° 0,7 mm 2 m/s 678 mmHg 75%
    15:00 +20°C° 0,7 mm 2 m/s 678 mmHg 78%
    16:00 +20°C° 0,7 mm 2 m/s 678 mmHg 82%
    17:00 +19°C° 0,4 mm 2 m/s 678 mmHg 86%
    18:00 +18°C° 0,4 mm 2 m/s 679 mmHg 90%
    19:00 +18°C° 0,4 mm 1 m/s 679 mmHg 94%
    20:00 +16°C° 0,1 mm 1 m/s 679 mmHg 95%
    21:00 +15°C° 0,1 mm 1 m/s 679 mmHg 95%
    22:00 +14°C° 0,1 mm 1 m/s 680 mmHg 96%
    23:00 +14°C° 0 mm 1 m/s 680 mmHg 96%

    29 Iulie, Sâmbătă

    Timp Temperatura Precipitaţii Vânt Presiune Umiditate
    00:00 +14°C° 0 mm 1 m/s 680 mmHg 96%
    01:00 +13°C° 0 mm 1 m/s 680 mmHg 96%
    02:00 +13°C° 0 mm 1 m/s 680 mmHg 96%
    03:00 +12°C° 0 mm 1 m/s 679 mmHg 96%
    04:00 +12°C° 0 mm 1 m/s 679 mmHg 96%
    05:00 +13°C° 0 mm 1 m/s 680 mmHg 94%
    06:00 +14°C° 0 mm 0 m/s 680 mmHg 91%
    07:00 +15°C° 0 mm 0 m/s 680 mmHg 89%
    08:00 +19°C° 0 mm 1 m/s 681 mmHg 79%
    09:00 +21°C° 0 mm 1 m/s 681 mmHg 69%
    10:00 +23°C° 0 mm 1 m/s 682 mmHg 59%
    11:00 +24°C° 0 mm 1 m/s 681 mmHg 58%
    12:00 +25°C° 0 mm 1 m/s 681 mmHg 56%
    13:00 +25°C° 0 mm 2 m/s 681 mmHg 55%
    14:00 +25°C° 0,3 mm 2 m/s 681 mmHg 60%
    15:00 +24°C° 0,3 mm 2 m/s 681 mmHg 64%
    16:00 +24°C° 0,3 mm 2 m/s 681 mmHg 69%
    17:00 +21°C° 0,5 mm 2 m/s 680 mmHg 76%
    18:00 +21°C° 0,5 mm 1 m/s 680 mmHg 84%
    19:00 +20°C° 0,5 mm 1 m/s 680 mmHg 91%
    20:00 +19°C° 1,2 mm 1 m/s 680 mmHg 93%
    21:00 +18°C° 1,2 mm 1 m/s 680 mmHg 94%
    22:00 +15°C° 1,2 mm 0 m/s 680 mmHg 96%
    23:00 +15°C° 0,6 mm 0 m/s 680 mmHg 96%
    Arată mai mult